Gold Country Challenge - Loft Flight Inventory

Station: Loft Fly - T Race

Distance: 0.3 Miles    

Release: 17-Jul-2017 06:15

Weather Release:    Arrival:

Wind at Release:     Wind at Arrival:

Temp at Release: °    Temp at Arrival: °

Lofts: 92

Birds: 423

Clocked: 423

Loft Flight and Inventory. Training begins mid August
Drops Pos Breeder Pigeon Name Color Sex Ent Arrival Speed To Win Eligible Champ
1 Perfection Loft - KS 3717-AU17-AA BBSP C 1 07:15:23.80 145.703 00:00:00 Lost
2 John Partridge - CA 0526-AU17-PASO All-In-One MLY H 1 07:15:24.30 145.683 00:00:00 Lost
3 Joe Sanford - CA 4382-AU17-JEDD BCSP H 1 07:15:40.40 145.039 00:00:17 Lost
4 Perfection Loft & Torres Loft - KS 3732-AU17-AA BB H 2 07:15:50.40 144.642 00:00:27 Yes
5 Flying W - CA 0511-AU17-AUB P/S hof BB H 1 07:16:26.40 143.229 00:01:03 Yes
6 D J's Loft Of Ca - CA 6000-AU17-FSC BB H 1 07:16:29.50 143.109 00:01:06 Lost
7 Marengo Creek Farms - AL 2679-AU17-MCF BB H 1 07:16:47.60 142.410 00:01:24 Yes
8 Dream Team - VT 0345-AU17-JCZL 6817 x 35553 BCSP H 1 07:16:50.70 142.291 00:01:27 Yes
9 Bob & Susie - CA 0861-AU17-AUB BB H 1 07:16:51.00 142.280 00:01:27 Lost
10 Skychargers - CA 0517-AU17-CORO BBPD H 1 07:17:40.20 140.418 00:02:16 Lost
11 John Hedderson - CA 6997-AU17-FSC 6855x1261 SILV C 1 07:17:46.20 140.194 00:02:22 Lost
12 Eastern Pearl Loft - VA 0241-AU17-EPL 🈚️量 241 BB H 1 07:17:56.10 139.827 00:02:32 Yes
13 Racing Pigeon Mall - WA 0700-AU17-RPM BC H 1 07:18:09.40 139.336 00:02:46 Lost
14 Thunder Birds Breeding/Rodriguez Loft - TX 19807-AU17-ARPU Make it a Karlsberg! BB C 1 07:18:12.60 139.218 00:02:49 Lost
15 A P C Loft - TX 17197-AU17-APC BB H 1 07:18:22.60 138.852 00:02:59 Yes
16 Al Shulman - CA 0214-AU17-WSJ BC H 1 07:18:39.40 138.242 00:03:16 Yes
17 Gypsy Lofts - CA 5186-AU17-AA Hank RC C 1 07:19:06.40 137.271 00:03:43 Lost
18 Flying W - CA 0522-AU17-AUB Na/1648 hof BC H 2 07:19:08.10 137.211 00:03:44 Yes
19 Avalos Loft - CA 0145-AU17-TULE BB H 1 07:19:08.60 137.193 00:03:45 Yes
20 Flying W - CA 0506-AU17-AUB SLT H 3 07:19:16.10 136.926 00:03:52 Lost
21 Jactions Loft - CA 15960-AU17-AA BB H 1 07:19:16.70 136.905 00:03:53 Lost
22 Silicon Valley Syndicates - CA 1758-AU17-WSJ BB H 1 07:19:19.10 136.819 00:03:55 Lost
23 Eastern Pearl Loft - VA 0242-AU17-EPL 🈚️量 242 BC H 2 07:19:35.50 136.240 00:04:12 Lost
24 Joe Sanford - CA 4400-AU17-JEDD BBSP H 2 07:19:51.30 135.687 00:04:27 Lost
25 Lopez/ Saenz - CA 0833-AU17-TCH DC H 1 07:20:16.00 134.831 00:04:52 Lost
26 Bolgar Loft - CA 7503-AU17-FSC OPAL H 1 07:20:29.60 134.365 00:05:06 Lost
27 John Hedderson - CA 7100-AU17-FSC 1080996x13938 BB H 2 07:20:44.90 133.844 00:05:21 Inj
28 Barrett Family Loft - IL 0026-AU17-BARR DCSP H 1 07:20:58.70 133.377 00:05:35 Yes
29 Skychargers - CA 0011-AU17-CORO BC H 2 07:21:05.80 133.138 00:05:42 Yes
30 John Partridge - CA 0516-AU17-PASO BBWF H 2 07:21:37.00 132.099 00:06:13 Lost
31 Alpha & Omega Lofts - NV 17054-AU17-SNV BLK H 1 07:21:39.40 132.020 00:06:16 Yes
32 Not Eligible - VA Disqualified 🈚️量 205 3 07:21:46.10 131.799 00:06:22 No
33 Jactions Loft - CA 15957-AU17-AA BB H 2 07:21:50.50 131.654 00:06:27 Yes
34 Eastern Pearl Loft - VA 0221-AU17-EPL 🈚️量 221 BB H 4 07:21:57.40 131.428 00:06:34 Lost
35 Ron Brooks - AR 1739-AU17-REB BC H 1 07:22:05.10 131.177 00:06:41 Yes
36 Smith R.P.L. - UT 3082-AU17-SRPL BB H 1 07:22:25.00 130.532 00:07:01 Lost
37 Tom O`Brien - CA 70802-AU17-SOC BB H 1 07:23:18.90 128.815 00:07:55 Yes
38 Gypsy Lofts - CA 5181-AU17-AA Geordie BB H 2 07:23:21.40 128.737 00:07:58 Lost
39 Barrett Family Loft - IL 0018-AU17-BARR PIED H 2 07:24:22.60 126.844 00:08:59 Lost
40 Kay Eastwood - CA 19026-AU17-AA BB H 1 07:24:48.70 126.053 00:09:25 Lost
41 Genesis Syndicate Loft - AZ 0362-AU17-GEN DC H 1 07:25:08.30 125.466 00:09:45 Yes
42 P N W Challenge - ID 7015-AU17-PNWC "487-63" BB H 1 07:25:17.50 125.193 00:09:54 Yes
43 D J's Loft Of Ca - CA 6034-AU17-FSC BB H 2 07:27:36.70 121.193 00:12:13 Lost
44 Taylor Loft - NM 0420-AU17-NMRP Sky Rose BB H 1 07:29:07.30 118.724 00:13:43 Lost
45 Haack Loft - CA 2742-AU17-JEDD RC H 1 07:29:50.60 117.579 00:14:27 Lost
46 Lopez/ Saenz - CA 0849-AU17-TCH BB H 2 07:30:25.30 116.677 00:15:02 Lost
47 Perfection Loft & Torres Loft - KS 3719-AU17-AA BB H 3 07:30:57.10 115.863 00:15:33 Yes
48 Blue - Face - CA 1122-AU17-FVC BC H 1 07:32:59.30 112.837 00:17:36 Yes
49 Skylinerpl.Com - UT 0082-AU17-UVI "Bettini Lady" BB H 1 07:33:05.70 112.683 00:17:42 Yes
50 Tom O`Brien - CA 70807-AU17-SOC BBSP H 2 07:33:24.50 112.233 00:18:01 Lost
51 Chala Loft - WA 1756-AU17-EVE BB H 1 07:33:37.00 111.936 00:18:13 Lost
52 Barrett Family Loft - IL 0011-AU17-BARR BB H 3 07:34:13.00 111.088 00:18:49 Lost
53 Loizzi - Sikora - CA 3776-AU17-FVC BB H 1 07:34:35.50 110.564 00:19:12 Yes
54 Sugaronni Loft - CA 7047-AU17-FOYS BB H 1 07:35:23.70 109.460 00:20:00 Yes
55 Marengo Creek Farms - AL 2701-AU17-MCF BB H 2 07:36:26.60 108.051 00:21:03 Lost
56 Tom O`Brien - CA 70800-AU17-SOC BBWF H 3 07:36:41.40 107.724 00:21:18 Yes
57 Valhalla Loft - CA 0406-AU17-WSJ DC H 1 07:36:41.70 107.718 00:21:18 Yes
58 Hayloft - CA 7210-AU17-GSF BB H 1 07:36:58.70 107.345 00:21:35 Lost
59 Nanez Family Lofts - WI 4179-AU17-NFL BB H 1 07:37:06.50 107.175 00:21:43 Lost
60 Irishsyndicatelofts - AZ 7764-IF17-IRIS RCSP H 1 07:37:33.30 106.596 00:22:09 Lost
61 Valhalla Loft - CA 0405-AU17-WSJ BC H 2 07:42:13.00 100.898 00:26:49 Yes
62 H & H Flying Circus - CA 0708-AU17-ML BC H 1 07:42:41.90 100.344 00:27:18 Yes
63 Smith R.P.L. - UT 3088-AU17-SRPL BC H 2 07:42:56.30 100.070 00:27:32 Lost
64 Kay Eastwood - CA 19119-AU17-AA BB H 2 07:43:58.50 98.904 00:28:35 Lost
65 V Lin - IA 0318-AU17-VLIN BB H 1 07:44:08.60 98.717 00:28:45 Lost
66 Haack Loft - CA 2738-AU17-JEDD RB H 2 07:44:26.80 98.383 00:29:03 Yes
67 Flying W - CA 0557-AU17-AUB Nyquest BC H 4 07:45:24.40 97.338 00:30:01 Yes
68 Tou Loft - TN 0092-AU17-TOU BBWS H 1 07:45:25.40 97.320 00:30:02 Lost
69 Perfection Loft - KS 3723-AU17-AA BB H 4 07:45:48.80 96.902 00:30:25 Lost
70 Flyin Hawaiian Lanai Loft - HI 0112-AU17-LANA Ikaika 112 BB H 1 07:45:59.60 96.710 00:30:36 Lost
71 Loizzi - Sikora - CA 3720-AU17-FVC PIED H 2 07:46:20.40 96.343 00:30:57 Yes
72 Rob Wilson - CA 1303-AU17-AVC BB H 1 07:46:21.40 96.326 00:30:58 Yes
73 Hayloft - CA 0042-AU17-GSF BB H 2 07:46:23.70 96.285 00:31:00 Lost
74 Barrett Family Loft - IL 0006-AU17-BARR BC H 4 07:46:24.60 96.270 00:31:01 Yes
75 D J's Loft Of Ca - CA 6017-AU17-FSC DCWF H 3 07:46:26.20 96.241 00:31:02 Yes
76 California Breeders Syndicate - CA 19029-AU17-AA BC H 1 07:46:30.80 96.161 00:31:07 Yes
77 Barrett Family Loft - IL 0003-AU17-BARR BC H 5 07:47:27.90 95.171 00:32:04 Yes
78 Stone Loft - NC 8855-IF17-FOYS BC H 1 07:47:40.10 94.962 00:32:16 Yes
79 Huan Qiu Zhang - NC 1825-IF17-JNC BC H 1 07:48:14.30 94.382 00:32:50 Lost
80 Joe Sanford - CA 4399-AU17-JEDD BCWF H 3 07:48:14.60 94.377 00:32:51 Yes
81 John Hedderson - CA 6998-AU17-FSC 200x773 BB H 3 07:48:15.80 94.356 00:32:52 Yes
82 Joe Sanford - CA 4398-AU17-JEDD SLT H 4 07:48:16.10 94.351 00:32:52 Yes
83 John Hedderson - CA 6996-AU17-FSC 6855x1261 BB H 4 07:48:27.50 94.160 00:33:04 Lost
84 Dream Team - VT 0781-AU17-JCZL BB H 2 07:48:40.50 93.942 00:33:17 Lost
85 Genesis Syndicate Loft - AZ 0358-AU17-GEN BC H 2 07:48:45.60 93.857 00:33:22 Yes
86 Perfection Loft - KS 3720-AU17-AA BB H 5 07:48:47.10 93.832 00:33:23 Lost
87 Silicon Valley Syndicates - CA 0807-AU17-JEDD BB H 2 07:48:49.30 93.795 00:33:25 Yes
88 Gypsy Lofts - CA 5182-AU17-AA Sydney BB H 3 07:48:57.30 93.662 00:33:33 Lost
89 R P S Loft - CA 2544-AU17-SFR €€ BOOMERANG 2 €€ BC H 1 07:49:22.00 93.253 00:33:58 Yes
90 Taylor Loft - NM 0410-AU17-NMRP Gold One BB H 2 07:49:34.20 93.053 00:34:10 Lost
91 Jactions Loft - CA 15976-AU17-AA BBSP H 3 07:50:00.40 92.625 00:34:37 Yes
92 Skychargers - CA 0522-AU17-COLR PIED H 3 07:50:04.60 92.557 00:34:41 Lost
93 Fog City Loft - CA 2328-AU17-FCL BB H 1 07:50:16.60 92.363 00:34:53 Yes
94 Perfection Loft & Torres Loft - KS 3735-AU17-AA BB H 6 07:50:21.80 92.279 00:34:58 Yes
95 Lechuga Loft - TX 0058-AU17-AMA DC H 1 07:50:22.30 92.271 00:34:58 Lost
96 H & H Flying Circus - CA 0707-AU17-ML BC H 2 07:50:41.80 91.957 00:35:18 Lost
97 Barrett Family Loft - IL 0023-AU17-BARR MLY H 6 07:50:59.90 91.668 00:35:36 Yes
98 Al Shulman - CA 0204-AU17-WSJ BCPD H 2 07:51:35.30 91.108 00:36:12 Yes
99 Skychargers - CA 0521-AU17-CORO PIED H 4 07:51:41.30 91.014 00:36:17 Lost
100 Sugaronni Loft - CA 7043-AU17-FOYS BB H 2 07:51:41.80 91.006 00:36:18 Yes

There are 205 bird records

Note: These Race Results are unofficial and subject to change until verified by the Race Committee and declared final.